ETH809 HAAB-FAOR

Flight info

Callsign ETH809
Flight time N/A
Altitude 36000
Route SHALA2A SHALA UM308 RUDOL/N0486F350 UM308 LOTAS/N0485F360 UM441 LOSIN UM315 UMTAP/N0483F380 UM315 USUBI UR409 VMV UP312 OKMUX UZ11 NESAG UZ7 OKPIT OKPIT1C
Aircraft B77W/H-SDE1E2E3FGHIJ2J3J4J5M1RWXY/LB1D1

Departure

Time 2026-04-29 11:09
Airport Addis Ababa Bole International Airport (HAAB)

Arrival

Time N/A
Airport O.R. Tambo International Airport (FAOR)
Time Latitude Longitude Altitude Speed Heading
2026-04-29 10:37 8.98231 38.79662 7630 ft 0 kts 345°
2026-04-29 10:55 8.98226 38.79663 7628 ft 2 kts 345°
2026-04-29 10:55 8.98211 38.79667 7633 ft 2 kts 345°
2026-04-29 10:55 8.98195 38.79672 7634 ft 2 kts 341°
2026-04-29 10:55 8.98180 38.79679 7635 ft 2 kts 314°
2026-04-29 10:56 8.98173 38.79693 7635 ft 2 kts 266°
2026-04-29 10:56 8.98174 38.79700 7633 ft 0 kts 251°
2026-04-29 11:03 8.98148 38.79617 7531 ft 24 kts 252°
2026-04-29 11:03 8.98100 38.79443 7530 ft 26 kts 254°
2026-04-29 11:04 8.98052 38.79279 7532 ft 23 kts 253°
2026-04-29 11:04 8.98011 38.79119 7532 ft 23 kts 257°
2026-04-29 11:04 8.97966 38.78961 7532 ft 23 kts 253°
2026-04-29 11:04 8.97921 38.78802 7532 ft 23 kts 253°
2026-04-29 11:05 8.97833 38.78732 7530 ft 16 kts 166°
2026-04-29 11:05 8.97729 38.78773 7529 ft 16 kts 160°
2026-04-29 11:05 8.97622 38.78806 7520 ft 16 kts 167°
2026-04-29 11:05 8.97545 38.78739 7520 ft 16 kts 251°
2026-04-29 11:06 8.97516 38.78629 7519 ft 16 kts 255°
2026-04-29 11:06 8.97485 38.78519 7518 ft 16 kts 251°
2026-04-29 11:06 8.97448 38.78412 7518 ft 16 kts 251°
2026-04-29 11:06 8.97412 38.78304 7620 ft 16 kts 236°
2026-04-29 11:07 8.97312 38.78313 7629 ft 16 kts 139°
2026-04-29 11:07 8.97253 38.78408 7636 ft 19 kts 93°
2026-04-29 11:07 8.97296 38.78583 7637 ft 36 kts 73°
2026-04-29 11:07 8.97400 38.78941 7634 ft 79 kts 73°
2026-04-29 11:08 8.97612 38.79669 7629 ft 136 kts 73°
2026-04-29 11:08 8.97930 38.80756 7624 ft 184 kts 74°
2026-04-29 11:08 8.98337 38.82083 7820 ft 202 kts 75°
2026-04-29 11:08 8.98738 38.83453 8226 ft 208 kts 75°
2026-04-29 11:09 8.99145 38.84875 8772 ft 207 kts 73°
2026-04-29 11:09 8.99555 38.86251 9336 ft 204 kts 74°
2026-04-29 11:09 8.99992 38.87688 9507 ft 224 kts 73°
2026-04-29 11:09 9.00474 38.89209 9887 ft 232 kts 71°
2026-04-29 11:10 9.00970 38.90821 10176 ft 247 kts 73°
2026-04-29 11:10 9.01479 38.92501 10721 ft 249 kts 72°
2026-04-29 11:10 9.01986 38.94164 11468 ft 245 kts 73°
2026-04-29 11:10 9.02453 38.95823 12166 ft 243 kts 75°
2026-04-29 11:11 9.02571 38.97503 12661 ft 250 kts 101°
2026-04-29 11:11 9.01829 38.99114 13156 ft 262 kts 129°
2026-04-29 11:11 9.00356 39.00228 13703 ft 273 kts 156°
2026-04-29 11:11 8.98420 39.00608 13918 ft 298 kts 182°
2026-04-29 11:12 8.96368 39.00070 14364 ft 312 kts 210°
2026-04-29 11:12 8.94748 38.98700 15366 ft 298 kts 232°
2026-04-29 11:12 8.93787 38.96895 16325 ft 291 kts 251°
2026-04-29 11:12 8.93175 38.94948 17020 ft 293 kts 253°
2026-04-29 11:13 8.92586 38.92942 17558 ft 299 kts 253°
2026-04-29 11:13 8.91967 38.90890 18134 ft 306 kts 252°
2026-04-29 11:13 8.91331 38.88842 18735 ft 310 kts 251°
2026-04-29 11:13 8.90311 38.86890 18953 ft 324 kts 225°
2026-04-29 11:14 8.88431 38.85587 19114 ft 336 kts 200°
2026-04-29 11:14 8.86167 38.84709 19235 ft 359 kts 199°
2026-04-29 11:14 8.83767 38.83785 19366 ft 381 kts 199°
2026-04-29 11:14 8.81234 38.82774 19465 ft 402 kts 201°
2026-04-29 11:15 8.78576 38.81674 19551 ft 422 kts 201°
2026-04-29 11:15 8.75816 38.80504 19754 ft 436 kts 201°
2026-04-29 11:15 8.72986 38.79290 20175 ft 444 kts 202°
2026-04-29 11:15 8.70121 38.78055 20667 ft 449 kts 202°
2026-04-29 11:16 8.67237 38.76815 21190 ft 453 kts 202°
2026-04-29 11:16 8.64318 38.75579 21722 ft 456 kts 201°
2026-04-29 11:16 8.61322 38.74504 22234 ft 459 kts 198°
2026-04-29 11:16 8.58273 38.73476 22738 ft 464 kts 198°
2026-04-29 11:17 8.55227 38.72464 23180 ft 469 kts 198°
2026-04-29 11:17 8.52109 38.71429 23738 ft 471 kts 198°
2026-04-29 11:17 8.48988 38.70389 24171 ft 474 kts 198°
2026-04-29 11:17 8.45836 38.69333 24540 ft 479 kts 198°
2026-04-29 11:18 8.42656 38.68263 25015 ft 481 kts 198°
2026-04-29 11:18 8.39482 38.67192 25490 ft 483 kts 198°
2026-04-29 11:18 8.36287 38.66113 25959 ft 485 kts 198°
2026-04-29 11:18 8.33109 38.65039 26397 ft 488 kts 198°
2026-04-29 11:19 8.29884 38.63950 26904 ft 488 kts 198°
2026-04-29 11:19 8.26648 38.62857 27257 ft 493 kts 198°
2026-04-29 11:19 8.23375 38.61753 27588 ft 498 kts 198°
2026-04-29 11:19 8.20086 38.60643 28025 ft 499 kts 198°
2026-04-29 11:20 8.16782 38.59528 28433 ft 501 kts 198°
2026-04-29 11:20 8.13455 38.58406 28724 ft 506 kts 198°
2026-04-29 11:20 8.10117 38.57281 29176 ft 506 kts 198°
2026-04-29 11:20 8.06758 38.56149 29475 ft 510 kts 198°
2026-04-29 11:21 8.03381 38.55010 29815 ft 512 kts 197°
2026-04-29 11:21 8.00005 38.53872 30237 ft 511 kts 197°
2026-04-29 11:21 7.96628 38.52734 30537 ft 513 kts 197°
2026-04-29 11:21 7.93277 38.51605 30856 ft 514 kts 197°
2026-04-29 11:22 7.89893 38.50465 31348 ft 510 kts 197°
2026-04-29 11:22 7.86538 38.49334 31861 ft 507 kts 197°
2026-04-29 11:22 7.83197 38.48209 32373 ft 503 kts 197°
2026-04-29 11:22 7.79885 38.47094 32956 ft 498 kts 197°
2026-04-29 11:23 7.76600 38.45988 33372 ft 498 kts 198°
2026-04-29 11:23 7.73315 38.44883 33775 ft 497 kts 198°
2026-04-29 11:23 7.70044 38.43782 34171 ft 495 kts 198°
2026-04-29 11:23 7.66782 38.42684 34524 ft 494 kts 197°
2026-04-29 11:24 7.63527 38.41589 34874 ft 492 kts 197°
2026-04-29 11:24 7.60275 38.40495 35232 ft 491 kts 197°
2026-04-29 11:24 7.57042 38.39408 35563 ft 490 kts 197°
2026-04-29 11:24 7.53810 38.38321 35836 ft 490 kts 197°
2026-04-29 11:25 7.50603 38.37243 35868 ft 494 kts 197°
2026-04-29 11:25 7.44048 38.35227 35906 ft 489 kts 194°
2026-04-29 11:26 7.34237 38.32603 35914 ft 484 kts 194°
2026-04-29 11:26 7.27726 38.30859 35914 ft 484 kts 194°
2026-04-29 11:27 7.21217 38.29095 35925 ft 484 kts 194°
2026-04-29 11:27 7.15805 38.27622 35934 ft 485 kts 194°
2026-04-29 11:28 7.09312 38.25856 35931 ft 486 kts 194°
2026-04-29 11:28 7.02758 38.24075 35934 ft 488 kts 194°
2026-04-29 11:29 6.96211 38.22298 35938 ft 489 kts 194°
2026-04-29 11:29 6.89622 38.20509 35938 ft 490 kts 194°
2026-04-29 11:30 6.83031 38.18720 35927 ft 491 kts 194°
2026-04-29 11:30 6.76429 38.16928 35932 ft 491 kts 194°
2026-04-29 11:31 6.69823 38.15136 35929 ft 491 kts 194°
2026-04-29 11:31 6.63226 38.13347 35930 ft 490 kts 194°
2026-04-29 11:32 6.56649 38.11563 35939 ft 490 kts 194°
2026-04-29 11:32 6.50115 38.09790 35937 ft 488 kts 194°
2026-04-29 11:33 6.43557 38.08003 35929 ft 487 kts 194°
2026-04-29 11:33 6.37021 38.06220 35931 ft 486 kts 194°
2026-04-29 11:34 6.30500 38.04442 35950 ft 485 kts 194°
2026-04-29 11:34 6.23986 38.02667 35944 ft 485 kts 194°
2026-04-29 11:35 6.17467 38.00891 35955 ft 485 kts 194°
2026-04-29 11:35 6.11048 37.99143 35944 ft 486 kts 194°
2026-04-29 11:36 6.04505 37.97362 35952 ft 487 kts 194°
2026-04-29 11:36 5.98013 37.95595 35952 ft 487 kts 195°
2026-04-29 11:37 5.91463 37.93813 35950 ft 488 kts 194°
2026-04-29 11:37 5.84896 37.92026 35953 ft 488 kts 194°
2026-04-29 11:38 5.78328 37.90240 35939 ft 489 kts 194°
2026-04-29 11:38 5.71786 37.88460 35942 ft 490 kts 194°
2026-04-29 11:39 5.65212 37.86673 35942 ft 490 kts 194°
2026-04-29 11:39 5.58626 37.84883 35948 ft 490 kts 194°
2026-04-29 11:40 5.52046 37.83095 35949 ft 489 kts 194°
2026-04-29 11:40 5.45473 37.81310 35951 ft 489 kts 194°
2026-04-29 11:41 5.38900 37.79524 35938 ft 489 kts 194°
2026-04-29 11:41 5.32336 37.77742 35942 ft 488 kts 194°
2026-04-29 11:42 5.25822 37.75973 35936 ft 488 kts 194°
2026-04-29 11:42 5.19267 37.74194 35938 ft 488 kts 195°
2026-04-29 11:43 5.12704 37.72413 35935 ft 488 kts 194°
2026-04-29 11:43 5.06146 37.70634 35926 ft 488 kts 194°
2026-04-29 11:44 4.99632 37.68867 35929 ft 488 kts 194°
2026-04-29 11:44 4.93075 37.67089 35928 ft 488 kts 195°
2026-04-29 11:45 4.86522 37.65312 35925 ft 488 kts 194°
2026-04-29 11:45 4.79953 37.63531 35936 ft 488 kts 194°
2026-04-29 11:46 4.73440 37.61766 35930 ft 488 kts 195°
2026-04-29 11:46 4.66881 37.59988 35932 ft 488 kts 194°
2026-04-29 11:47 4.60328 37.58213 35922 ft 487 kts 194°
2026-04-29 11:47 4.53770 37.56436 35924 ft 487 kts 194°
2026-04-29 11:48 4.47220 37.54663 35925 ft 487 kts 194°
2026-04-29 11:48 4.40721 37.52903 35931 ft 487 kts 194°
2026-04-29 11:49 4.34172 37.51130 35920 ft 487 kts 194°
2026-04-29 11:49 4.27621 37.49356 35917 ft 487 kts 194°
2026-04-29 11:50 4.21071 37.47583 35910 ft 487 kts 194°
2026-04-29 11:50 4.14514 37.45808 35914 ft 488 kts 194°
2026-04-29 11:51 4.07934 37.44029 35912 ft 490 kts 194°
2026-04-29 11:51 4.01376 37.42254 35913 ft 492 kts 194°
2026-04-29 11:52 3.94784 37.40406 35908 ft 493 kts 195°
2026-04-29 11:52 3.88197 37.38441 35904 ft 493 kts 195°
2026-04-29 11:53 3.81632 37.36474 35888 ft 492 kts 195°
2026-04-29 11:53 3.75075 37.34527 35893 ft 491 kts 195°
2026-04-29 11:54 3.68533 37.32594 35886 ft 490 kts 195°
2026-04-29 11:54 3.61990 37.30663 35888 ft 489 kts 194°
2026-04-29 11:55 3.55468 37.28739 35889 ft 488 kts 195°
2026-04-29 11:55 3.48992 37.26828 35879 ft 488 kts 195°
2026-04-29 11:56 3.42490 37.24909 35881 ft 487 kts 194°
2026-04-29 11:56 3.35985 37.22989 35874 ft 487 kts 195°
2026-04-29 11:57 3.29479 37.21070 35878 ft 487 kts 195°
2026-04-29 11:57 3.22976 37.19152 35871 ft 487 kts 195°
2026-04-29 11:58 3.16476 37.17234 35876 ft 487 kts 195°
2026-04-29 11:58 3.09981 37.15319 35879 ft 487 kts 196°
2026-04-29 11:59 3.03477 37.13400 35886 ft 486 kts 195°
2026-04-29 11:59 2.96988 37.11487 35883 ft 485 kts 195°
2026-04-29 12:00 2.90564 37.09593 35876 ft 484 kts 195°
2026-04-29 12:00 2.84113 37.07691 35883 ft 483 kts 195°
2026-04-29 12:01 2.77674 37.05794 35888 ft 482 kts 195°
2026-04-29 12:01 2.71239 37.03897 35881 ft 482 kts 195°
2026-04-29 12:02 2.64790 37.01997 35894 ft 482 kts 195°
2026-04-29 12:02 2.58344 37.00097 35891 ft 483 kts 195°
2026-04-29 12:03 2.52068 36.98249 35884 ft 484 kts 195°
2026-04-29 12:03 2.45601 36.96344 35899 ft 485 kts 195°
2026-04-29 12:04 2.39114 36.94433 35897 ft 486 kts 195°
2026-04-29 12:04 2.32606 36.92516 35902 ft 487 kts 195°
2026-04-29 12:05 2.26097 36.90599 35903 ft 488 kts 195°
2026-04-29 12:05 2.19565 36.88675 35913 ft 489 kts 195°
2026-04-29 12:06 2.13039 36.86754 35919 ft 489 kts 195°
2026-04-29 12:06 2.06545 36.84842 35921 ft 490 kts 195°
2026-04-29 12:07 1.99989 36.82911 35924 ft 491 kts 195°
2026-04-29 12:07 1.93427 36.80980 35930 ft 493 kts 195°
2026-04-29 12:08 1.86866 36.79049 35914 ft 494 kts 195°
2026-04-29 12:08 1.80294 36.77114 35911 ft 490 kts 195°
2026-04-29 12:09 1.73778 36.75195 35911 ft 486 kts 195°
2026-04-29 12:09 1.67309 36.73292 35911 ft 483 kts 195°
2026-04-29 12:10 1.60856 36.71393 35913 ft 483 kts 195°
2026-04-29 12:10 1.54406 36.69496 35926 ft 484 kts 195°
2026-04-29 12:11 1.47979 36.67604 35927 ft 485 kts 195°
2026-04-29 12:11 1.41491 36.65696 35947 ft 486 kts 195°
2026-04-29 12:12 1.34982 36.63781 35927 ft 488 kts 195°
2026-04-29 12:12 1.28460 36.61862 35947 ft 489 kts 195°
2026-04-29 12:13 1.23024 36.60263 35944 ft 489 kts 195°
2026-04-29 12:13 1.16495 36.58342 35956 ft 490 kts 195°
2026-04-29 12:14 1.09947 36.56415 35972 ft 490 kts 195°
2026-04-29 12:14 1.02347 36.54181 35956 ft 490 kts 194°
2026-04-29 12:15 0.96779 36.53010 35971 ft 487 kts 185°
2026-04-29 12:15 0.90078 36.52359 35974 ft 487 kts 184°
2026-04-29 12:16 0.83309 36.51747 35975 ft 488 kts 184°
2026-04-29 12:16 0.76541 36.51099 35974 ft 489 kts 184°
2026-04-29 12:17 0.69771 36.50428 35973 ft 489 kts 184°
2026-04-29 12:17 0.62996 36.49751 35983 ft 489 kts 184°
2026-04-29 12:18 0.56231 36.49076 35979 ft 489 kts 184°
2026-04-29 12:18 0.49500 36.48406 35988 ft 488 kts 184°
2026-04-29 12:19 0.42734 36.47733 35987 ft 489 kts 184°
2026-04-29 12:19 0.35953 36.47058 35987 ft 489 kts 184°
2026-04-29 12:20 0.29184 36.46385 35997 ft 489 kts 184°
2026-04-29 12:20 0.22451 36.45715 36002 ft 488 kts 184°
2026-04-29 12:21 0.15654 36.45039 36001 ft 488 kts 184°
2026-04-29 12:21 0.08940 36.44371 36021 ft 488 kts 184°
2026-04-29 12:22 0.02191 36.43699 36021 ft 487 kts 184°
2026-04-29 12:22 -0.04558 36.43028 36040 ft 487 kts 184°
2026-04-29 12:23 -0.11298 36.42357 36031 ft 486 kts 185°
2026-04-29 12:23 -0.18038 36.41687 36032 ft 486 kts 185°
2026-04-29 12:24 -0.24756 36.41018 36049 ft 485 kts 185°
2026-04-29 12:24 -0.31491 36.40348 36045 ft 485 kts 185°
2026-04-29 12:25 -0.38169 36.39684 36056 ft 485 kts 185°
2026-04-29 12:26 -0.48257 36.38680 36061 ft 485 kts 185°
2026-04-29 12:26 -0.54977 36.38011 36051 ft 485 kts 185°
2026-04-29 12:27 -0.61698 36.37347 36047 ft 485 kts 184°
2026-04-29 12:27 -0.68428 36.36698 36048 ft 485 kts 184°
2026-04-29 12:28 -0.75150 36.36049 36043 ft 485 kts 184°
2026-04-29 12:28 -0.81873 36.35397 36043 ft 485 kts 184°
2026-04-29 12:29 -0.88581 36.34727 36035 ft 484 kts 185°
2026-04-29 12:29 -0.95290 36.34020 36029 ft 485 kts 185°
2026-04-29 12:30 -1.01949 36.33321 36026 ft 485 kts 185°
2026-04-29 12:30 -1.08651 36.32624 36025 ft 485 kts 185°
2026-04-29 12:31 -1.15373 36.31939 36015 ft 485 kts 184°
2026-04-29 12:31 -1.22090 36.31283 36014 ft 485 kts 184°
2026-04-29 12:32 -1.28816 36.30622 36002 ft 485 kts 184°
2026-04-29 12:32 -1.35527 36.29958 35984 ft 484 kts 184°
2026-04-29 12:33 -1.42230 36.29276 35991 ft 484 kts 185°
2026-04-29 12:33 -1.48920 36.28589 35973 ft 483 kts 184°
2026-04-29 12:34 -1.55606 36.27918 35977 ft 482 kts 184°
2026-04-29 12:34 -1.62292 36.27258 35958 ft 481 kts 184°
2026-04-29 12:35 -1.68957 36.26598 35959 ft 481 kts 184°
2026-04-29 12:35 -1.75570 36.25943 35948 ft 480 kts 184°
2026-04-29 12:36 -1.82219 36.25283 35957 ft 480 kts 184°
2026-04-29 12:36 -1.88859 36.24623 35959 ft 479 kts 184°
2026-04-29 12:37 -1.95502 36.23963 35951 ft 479 kts 184°
2026-04-29 12:37 -2.02123 36.23306 35938 ft 478 kts 184°
2026-04-29 12:38 -2.08748 36.22648 35952 ft 478 kts 184°
2026-04-29 12:38 -2.15383 36.21988 35934 ft 479 kts 184°
2026-04-29 12:39 -2.21966 36.21334 35938 ft 477 kts 184°
2026-04-29 12:39 -2.28563 36.20677 35937 ft 475 kts 184°
2026-04-29 12:40 -2.35133 36.20020 35939 ft 474 kts 184°
2026-04-29 12:40 -2.41694 36.19366 35947 ft 473 kts 184°
2026-04-29 12:41 -2.48243 36.18712 35952 ft 473 kts 184°
2026-04-29 12:41 -2.54790 36.18059 35953 ft 473 kts 184°
2026-04-29 12:42 -2.61341 36.17405 35968 ft 473 kts 184°
2026-04-29 12:42 -2.67895 36.16750 35970 ft 473 kts 184°
2026-04-29 12:43 -2.74407 36.16100 35973 ft 474 kts 184°
2026-04-29 12:43 -2.80969 36.15443 35982 ft 473 kts 184°
2026-04-29 12:44 -2.87532 36.14785 35984 ft 473 kts 184°
2026-04-29 12:44 -2.94084 36.14127 35984 ft 473 kts 184°
2026-04-29 12:45 -3.00626 36.13471 35981 ft 473 kts 184°
2026-04-29 12:45 -3.07183 36.12814 35980 ft 473 kts 184°
2026-04-29 12:46 -3.13724 36.12157 35989 ft 472 kts 184°
2026-04-29 12:46 -3.20225 36.11415 35986 ft 472 kts 185°
2026-04-29 12:47 -3.26755 36.10595 35981 ft 472 kts 186°
2026-04-29 12:47 -3.33271 36.09764 35983 ft 472 kts 185°
2026-04-29 12:48 -3.39784 36.08942 35983 ft 472 kts 185°
2026-04-29 12:48 -3.46310 36.08123 35984 ft 472 kts 185°
2026-04-29 12:49 -3.52832 36.07305 35976 ft 472 kts 185°
2026-04-29 12:49 -3.59358 36.06486 35974 ft 472 kts 185°
2026-04-29 12:50 -3.65849 36.05671 35978 ft 472 kts 185°
2026-04-29 12:50 -3.72379 36.04859 35979 ft 472 kts 185°
2026-04-29 12:51 -3.78905 36.04065 35972 ft 472 kts 185°
2026-04-29 12:51 -3.85419 36.03273 35979 ft 471 kts 185°
2026-04-29 12:52 -3.91897 36.02483 35978 ft 471 kts 185°
2026-04-29 12:52 -3.98408 36.01688 35982 ft 471 kts 185°
2026-04-29 12:53 -4.04777 36.00910 35979 ft 471 kts 185°
2026-04-29 12:53 -4.11286 36.00114 35980 ft 470 kts 185°
2026-04-29 12:54 -4.17627 35.99339 35980 ft 470 kts 185°
2026-04-29 12:54 -4.24117 35.98546 35986 ft 470 kts 185°
2026-04-29 12:55 -4.30576 35.97756 35986 ft 470 kts 185°
2026-04-29 12:55 -4.37071 35.96962 35987 ft 469 kts 185°
2026-04-29 12:56 -4.43565 35.96167 35985 ft 469 kts 185°
2026-04-29 12:56 -4.50054 35.95373 35994 ft 470 kts 185°
2026-04-29 12:57 -4.56542 35.94567 35994 ft 470 kts 185°
2026-04-29 12:57 -4.62992 35.93762 35998 ft 470 kts 185°
2026-04-29 12:58 -4.69482 35.92953 36000 ft 470 kts 185°
2026-04-29 12:58 -4.75983 35.92143 35996 ft 470 kts 185°
2026-04-29 12:59 -4.82473 35.91335 35993 ft 470 kts 185°
2026-04-29 12:59 -4.87865 35.90663 35991 ft 470 kts 185°
2026-04-29 13:00 -4.94367 35.89854 35988 ft 470 kts 185°
2026-04-29 13:00 -5.00851 35.89046 35993 ft 470 kts 186°
2026-04-29 13:01 -5.07338 35.88237 35985 ft 470 kts 186°
2026-04-29 13:01 -5.13821 35.87429 35982 ft 469 kts 186°
2026-04-29 13:02 -5.20308 35.86621 35986 ft 471 kts 186°
2026-04-29 13:02 -5.26778 35.85813 35969 ft 471 kts 186°
2026-04-29 13:03 -5.33278 35.85002 35973 ft 469 kts 186°
2026-04-29 13:03 -5.39759 35.84194 35971 ft 468 kts 186°
2026-04-29 13:04 -5.46223 35.83389 35975 ft 468 kts 186°
2026-04-29 13:04 -5.48361 35.83123 35972 ft 468 kts 186°